Flag for Germany Weather past 2 weeks in Landshut, Bavaria, Germany

Now
70 °F

Passing clouds.


Feels Like: 74 °F
Forecast: 63 / 83 °F
Wind: 1 mph from East

Location: Muenchen Flughafen

Current Time: Aug 4, 2015 at 9:28:37 AM

Latest Report: Aug 4, 2015 at 9:00 AM


Visibility: 7 mi

Pressure: 29.94 "Hg

Humidity: 71%

Dew point: 60 °F

Location of LandshutLocation

Historic Weather in Landshut — Graph

°F

Landshut temperature yesterday

Maximum temperature yesterday: 82 °F (at 5:00 PM)
Minimum temperature yesterday: 49 °F (at 6:00 AM)
Average temperature yesterday: 67 °F

Past Weeks' High & Low Weather Summary

 TemperatureHumidityPressure
High93 °F (Jul 22, 4:00 PM)100% (Aug 3, 5:00 AM)30.13 "Hg (Aug 3, 5:00 AM)
Low45 °F (Jul 30, 5:00 AM)26% (Jul 22, 5:00 PM)29.68 "Hg (Jul 27, 3:00 PM)
Average68 °F63%29.92 "Hg
* Reported Jul 20 8:00 AM — Aug 4 8:00 AM, Landshut, Weather by CustomWeather, © 2015

Note: Actual official high and low records may vary slightly from our data, if they occured in-between our weather recording intervals... More about our weather records

Advertising

Landshut weather history for previous 24 hours

 ConditionsComfort  
Time TempWeatherWind HumidityBarometerVisibility
8:00 AM
Tue, Aug 4
64 °FPassing clouds.1 mph82%29.97 "Hg6 mi
7:00 AM54 °FFog.1 mph99%30.01 "Hg5 mi
6:00 AM52 °FFog.1 mph99%30.01 "Hg4 mi
5:00 AM54 °FFog.No wind100%30.01 "Hg5 mi
4:00 AM54 °FFog.No wind97%30.02 "Hg9 mi
3:00 AM56 °FClear.1 mph99%30.02 "Hg11 mi
2:00 AM57 °FClear.No wind95%30.03 "Hg25 mi
1:00 AM58 °FClear.1 mph91%30.03 "Hg31 mi
11:00 PM
Mon, Aug 3
62 °FClear.1 mph80%30.04 "Hg31 mi
10:00 PM70 °FClear.3 mph61%30.02 "Hg31 mi
9:00 PM74 °FClear.2 mph53%30.00 "Hg31 mi
8:00 PM78 °FSunny.3 mph45%29.98 "Hg34 mi
7:00 PM81 °FSunny.2 mph39%29.98 "Hg34 mi
6:00 PM82 °FPassing clouds.5 mph36%29.98 "Hg43 mi
5:00 PM82 °FPassing clouds.3 mph35%29.99 "Hg43 mi
4:00 PM82 °FPassing clouds.3 mph37%30.01 "Hg43 mi
3:00 PM81 °FPassing clouds.2 mph36%30.03 "Hg43 mi
2:00 PM79 °FPassing clouds.2 mph41%30.03 "Hg43 mi
1:00 PM77 °FPassing clouds.3 mph40%30.05 "Hg37 mi
12:00 PM75 °FPassing clouds.2 mph49%30.07 "Hg31 mi
11:00 AM72 °FPassing clouds.3 mph59%30.08 "Hg31 mi
10:00 AM66 °FPassing clouds.1 mph76%30.09 "Hg19 mi
9:00 AM58 °FFog.1 mph94%30.12 "Hg3 mi
Weather by CustomWeather, © 2015

See weather overviewHow to use our weather pages